Theta_e
313 314 315 316 317 318 320 322 324 326 328 329 329 329 327 325 326 326 325 324 322 321 319 316 316 316 316 317 316 313 311 309 308 306 305 306 306 305 304 302 301 301
314 315 316 316 316 318 319 321 324 326 328 329 329 329 328 326 325 325 325 324 323 321 318 316 315 315 315 315 313 311 310 307 305 305 306 306 305 304 303 302 301 300
315 316 316 317 317 317 319 321 324 327 328 329 330 329 328 327 326 325 324 324 323 320 317 315 315 314 313 312 311 310 308 305 305 305 306 305 304 303 302 301 300 299
315 316 317 318 318 319 320 322 325 326 328 330 330 328 327 328 327 325 322 322 321 318 315 315 313 312 311 311 310 308 305 304 304 304 305 304 303 302 301 300 299 298
313 315 317 319 321 322 323 324 325 326 327 329 329 328 328 329 327 323 321 322 320 316 314 314 312 310 311 310 309 306 304 304 304 303 304 303 301 301 300 299 298 298
313 314 317 319 323 324 324 325 326 326 327 328 327 327 328 327 325 322 323 323 320 317 315 313 311 310 310 309 307 304 303 304 303 303 303 302 300 300 299 298 298 299
313 314 316 320 324 325 326 326 326 327 327 326 327 326 326 325 323 322 323 322 319 318 317 313 310 310 310 308 305 302 302 303 302 301 302 300 300 299 298 298 299 300
313 315 317 321 324 326 327 327 327 327 327 327 327 326 325 324 322 321 320 318 317 318 316 312 310 310 309 306 303 302 302 302 301 300 300 300 299 298 298 299 300 300
313 315 318 322 325 326 327 327 327 327 326 326 326 325 325 323 322 322 320 317 317 317 314 311 310 310 308 304 301 301 301 301 300 300 299 299 298 298 299 300 300 299
314 317 320 323 325 326 327 327 327 327 327 327 326 326 326 322 322 324 321 318 318 316 313 311 310 309 307 302 300 300 299 299 299 299 298 298 297 298 299 300 299 297
317 319 322 324 325 326 326 326 326 326 327 326 326 327 325 321 322 325 323 321 320 315 311 310 310 308 304 300 299 299 298 297 298 298 297 297 297 299 299 298 297 296
319 321 323 324 325 326 326 325 325 326 326 326 326 327 325 321 322 324 323 322 320 314 310 310 309 306 302 299 299 299 298 297 297 297 297 297 298 298 298 296 296 295
316 318 321 322 324 324 325 325 325 324 326 327 327 326 323 321 322 323 323 322 317 311 309 309 308 304 300 298 299 298 298 297 296 296 296 297 298 297 296 295 295 295
313 314 315 317 318 320 321 322 322 323 327 328 326 323 321 320 322 323 322 320 314 309 309 309 306 302 299 298 298 297 297 296 296 296 296 297 297 296 295 295 295 294
312 312 312 313 314 314 316 318 322 325 325 324 323 323 321 320 322 321 320 318 313 309 309 307 304 300 298 298 297 297 296 296 296 296 296 296 296 295 295 295 294 294
311 311 312 313 313 315 318 321 323 324 322 321 322 322 320 319 319 319 319 317 311 308 308 305 301 298 297 297 297 296 296 296 296 296 296 296 295 295 295 294 294 293
312 313 315 316 317 319 321 320 320 322 322 322 322 320 318 317 318 319 320 315 310 308 307 302 299 297 296 296 295 295 295 295 295 295 295 295 294 294 294 294 293 293
313 315 316 317 318 320 320 317 317 321 323 322 320 319 318 319 320 320 317 311 308 308 305 300 297 296 296 296 295 295 295 295 295 295 295 294 294 294 294 293 293 293
315 315 315 316 318 320 320 318 317 319 320 319 319 319 319 321 321 318 313 309 308 306 302 298 297 296 296 295 295 295 295 294 294 294 294 294 294 293 293 293 293 293
316 316 317 317 317 318 319 319 319 319 319 319 319 320 320 321 319 314 309 308 307 303 299 297 296 296 296 295 295 294 294 294 294 294 294 294 293 293 293 293 293 293
317 317 318 318 318 319 319 319 319 319 319 318 318 319 319 318 315 310 308 308 305 301 298 297 296 296 295 295 294 294 294 294 294 293 293 293 293 293 292 292 293 293
315 315 316 316 317 318 318 317 317 317 317 317 318 318 316 313 310 308 308 306 302 299 297 296 295 295 295 294 294 294 294 293 293 293 293 293 292 292 292 293 293 294
312 312 313 313 314 315 315 315 315 315 316 317 316 315 312 310 308 308 307 303 300 298 296 296 295 295 294 294 293 293 293 293 293 293 293 292 292 292 292 293 294 294
312 312 313 314 314 314 314 314 315 315 315 314 313 311 309 309 308 307 304 301 298 297 296 295 295 294 294 293 293 293 293 293 293 292 292 292 291 292 293 294 295 294
313 313 314 314 314 314 315 314 314 313 312 311 310 309 309 308 308 306 302 299 296 295 295 295 294 294 293 293 293 293 292 292 292 292 292 292 292 293 294 295 294 294
312 312 312 312 313 313 313 313 312 311 310 310 309 309 308 308 307 304 300 297 296 295 294 294 293 293 293 293 293 292 292 292 292 292 292 292 293 295 296 296 295 294
Wind_Speed
41 40 40 40 40 39 38 37 36 34 32 30 28 28 28 27 26 26 25 25 25 24 23 23 23 23 23 22 20 17 16 17 16 15 13 11 9 6 5 3 2 2
41 40 40 40 40 39 38 37 36 35 32 30 28 27 28 27 26 26 26 26 26 25 23 22 20 20 20 20 19 18 18 18 17 15 13 10 8 6 4 3 2 3
41 40 39 39 39 38 38 37 36 34 32 29 28 28 28 28 27 27 27 28 27 25 23 22 21 21 20 20 20 20 19 18 16 14 12 10 8 6 5 4 3 3
41 41 39 38 37 37 36 35 35 34 31 29 29 29 28 30 30 27 27 28 28 25 23 23 23 22 22 22 21 21 20 19 16 14 12 10 9 7 5 4 3 3
40 40 39 38 36 35 35 35 34 33 31 30 31 29 30 33 32 27 26 27 27 25 24 24 24 23 24 23 22 22 21 19 16 14 12 10 9 8 6 4 4 4
37 38 39 37 35 35 34 34 33 32 32 32 31 31 33 34 30 25 27 28 26 25 24 25 25 25 25 24 23 22 21 18 16 15 13 11 10 8 6 5 4 4
36 37 37 35 35 34 33 33 32 32 32 32 32 33 34 33 28 26 30 31 28 28 27 25 25 26 25 24 24 23 21 19 17 15 13 11 10 8 6 6 5 5
36 35 35 34 34 34 33 33 32 32 32 32 33 34 33 32 29 27 28 28 28 30 29 26 26 26 25 25 25 23 21 20 18 16 14 12 10 8 7 6 5 6
36 35 34 34 34 34 34 33 32 33 33 33 34 33 32 30 28 27 27 26 26 29 28 27 27 27 26 26 25 23 21 20 18 16 14 12 10 9 8 6 6 7
36 35 34 34 34 34 34 34 33 33 33 33 34 33 32 29 29 31 29 27 27 28 27 28 28 28 27 27 26 23 21 19 18 16 14 12 11 10 8 7 7 7
34 34 34 34 34 34 34 34 33 34 34 34 34 35 33 29 32 35 32 29 29 28 27 29 29 28 28 28 26 24 21 20 18 16 15 13 12 10 8 7 8 8
32 32 32 32 33 34 33 33 34 34 34 35 36 37 33 29 32 36 34 32 30 28 28 30 30 29 29 28 26 24 23 21 19 17 15 14 12 10 8 8 8 8
30 31 31 32 33 33 32 33 33 33 36 38 37 35 31 30 34 36 35 34 30 28 30 30 30 31 30 28 26 24 23 21 19 18 16 14 12 10 9 9 8 8
30 30 31 32 32 32 32 33 32 33 36 37 34 32 31 32 36 37 35 33 29 29 31 31 31 31 30 28 26 24 22 21 19 18 16 14 12 10 10 9 8 7
31 31 31 31 31 31 31 31 31 32 34 35 34 32 31 32 35 34 32 30 30 31 33 33 32 31 29 28 26 24 23 21 19 18 16 14 12 11 10 9 8 8
29 28 28 28 28 28 28 29 31 31 32 35 35 31 28 31 34 31 29 29 31 33 34 34 32 31 28 26 25 23 22 21 19 18 16 14 12 11 10 8 8 8
24 23 24 24 24 26 27 29 30 31 32 34 33 27 27 30 31 29 29 30 33 35 35 34 32 30 28 26 25 24 22 21 19 18 15 13 12 10 9 8 7 7
21 22 23 25 26 28 29 28 28 30 33 33 30 28 29 30 30 30 30 32 35 36 35 33 32 30 29 27 26 25 23 21 19 17 15 13 11 10 9 8 7 7
21 21 22 24 25 27 28 26 26 30 31 30 29 30 31 31 31 31 32 34 37 36 34 33 32 30 30 28 27 25 23 21 19 16 14 13 11 10 9 8 7 7
22 23 23 23 24 25 27 27 29 31 31 31 32 32 33 33 32 32 34 37 37 36 34 33 32 31 30 28 26 25 22 21 18 16 14 12 11 10 8 7 6 7
25 26 25 25 25 26 27 28 29 31 32 33 33 33 33 33 33 34 37 38 37 35 34 33 32 31 29 28 26 24 22 20 18 16 14 12 11 9 8 6 6 7
28 29 29 29 29 29 30 31 32 34 34 33 32 32 32 33 34 36 37 38 37 35 34 33 32 30 29 28 26 24 22 20 17 16 14 12 11 9 7 5 6 8
29 30 30 31 32 33 34 34 34 34 32 31 31 32 33 34 36 38 38 37 36 35 34 33 32 31 30 28 26 24 22 19 17 16 14 13 11 8 6 5 7 9
26 27 28 28 29 31 31 31 31 31 30 31 32 33 34 35 37 38 38 37 36 35 34 33 31 31 30 28 26 24 21 19 18 16 14 13 10 8 6 6 8 10
24 25 25 26 27 28 29 29 29 30 30 32 33 33 35 36 38 38 38 37 36 35 34 33 31 30 29 27 26 24 22 20 18 16 14 12 10 8 7 8 9 11
23 24 24 25 26 27 28 29 29 30 31 33 34 34 36 37 38 38 38 37 37 36 35 33 31 30 29 27 25 24 22 20 18 16 14 12 10 9 9 9 10 11
Wind_Direction
241 241 240 240 241 240 239 239 239 239 238 238 240 241 242 240 238 240 242 241 244 247 248 247 242 236 229 226 223 216 208 200 193 190 188 189 191 191 196 204 230 283
239 239 239 239 239 238 238 238 238 239 238 239 240 239 243 243 239 238 238 236 239 243 248 247 235 221 216 215 210 203 198 194 191 189 190 192 193 195 203 211 247 288
238 237 237 237 238 237 237 236 237 238 237 237 237 237 239 240 239 239 235 233 235 241 244 237 221 212 211 208 201 196 194 192 190 190 192 193 195 201 211 221 254 287
238 237 237 237 237 236 235 234 234 234 232 231 233 235 235 236 238 239 234 231 233 238 236 222 211 208 205 200 195 193 192 190 190 192 195 196 198 205 215 229 254 283
238 237 237 236 235 235 233 231 231 230 228 227 228 230 230 233 239 239 231 229 232 235 229 215 207 203 198 194 192 191 191 190 191 193 196 198 202 209 218 232 252 279
237 236 236 235 233 233 231 229 229 228 226 225 226 225 227 235 241 233 221 224 233 235 226 212 203 197 194 192 191 191 192 192 193 195 198 200 205 212 221 234 253 279
235 234 233 232 230 230 229 228 227 226 225 225 225 225 229 236 237 224 218 224 230 231 224 210 199 195 193 192 191 191 192 192 195 197 199 202 207 216 224 234 257 282
235 234 232 230 229 228 227 226 225 224 224 223 224 227 231 234 232 224 223 227 227 226 220 207 196 194 194 194 193 193 193 193 196 199 202 205 209 217 226 237 262 284
234 233 231 229 228 227 225 225 223 223 223 223 225 230 232 231 229 225 227 229 227 224 214 200 194 194 195 195 194 194 195 196 198 200 203 207 211 218 225 241 265 280
235 232 230 229 227 226 225 223 222 222 223 224 226 229 230 228 224 222 226 231 230 221 207 197 194 194 195 196 194 194 195 198 201 202 204 208 212 218 228 245 265 274
234 232 231 229 227 227 225 223 223 222 222 223 225 227 228 226 219 217 220 229 231 220 203 195 195 196 197 196 195 194 195 199 203 204 206 210 213 219 231 247 258 266
234 232 230 228 228 226 225 224 223 221 223 225 224 225 225 221 217 216 219 228 230 216 199 196 197 198 198 197 196 195 195 199 203 205 208 211 215 222 233 245 253 262
234 232 230 229 228 226 224 223 221 223 225 222 219 223 224 219 217 218 222 229 226 208 197 197 198 199 199 198 199 198 198 200 204 207 210 212 216 225 233 241 251 260
232 230 228 227 226 224 223 221 221 223 222 218 221 227 225 218 216 217 222 226 218 202 198 199 200 201 199 198 199 200 200 203 205 208 211 213 218 226 233 241 250 260
228 226 225 224 223 222 220 219 219 219 219 223 226 222 216 216 220 221 224 223 210 200 199 200 201 202 200 199 201 201 202 204 207 209 210 215 221 227 233 241 250 261
225 224 222 221 220 217 216 216 215 218 223 223 216 211 213 219 222 223 224 219 208 200 199 200 201 201 200 201 202 204 207 208 208 210 212 216 222 227 234 242 251 263
219 218 218 216 213 212 213 214 213 217 218 211 206 213 222 220 219 222 223 216 207 200 200 201 200 200 200 201 202 205 208 209 210 211 213 217 222 227 234 242 253 267
211 211 212 210 210 211 212 212 212 212 209 206 212 223 222 218 221 225 220 211 204 202 202 201 200 200 201 202 204 206 207 209 210 212 214 218 222 227 235 244 256 271
210 212 210 207 208 211 210 211 213 212 210 214 219 221 219 222 226 223 214 207 203 203 202 201 201 202 203 204 206 207 208 209 210 212 214 217 222 228 235 244 258 276
213 216 215 210 210 213 215 217 217 213 213 217 219 220 224 227 225 217 209 205 203 203 203 203 204 205 205 206 207 207 208 209 210 212 214 216 222 227 234 245 265 286
211 214 215 212 212 215 218 218 217 215 218 221 224 226 227 225 219 211 206 204 204 203 204 205 206 207 207 208 207 207 209 209 210 212 213 216 221 225 231 247 273 294
213 214 215 214 214 215 217 219 220 222 224 224 225 224 221 218 214 209 206 205 204 204 205 206 207 208 209 208 207 208 209 209 210 212 213 216 219 223 232 251 280 296
218 219 219 219 219 219 221 222 222 222 221 220 220 218 216 214 211 208 207 206 206 206 207 208 209 210 209 208 208 209 209 210 211 211 213 216 217 221 233 257 282 293
220 220 220 220 219 218 218 218 217 216 216 217 218 217 215 213 210 208 207 207 208 209 209 210 211 211 210 209 208 209 209 210 211 212 213 214 214 220 238 260 279 289
220 219 217 216 216 214 214 213 214 215 216 217 218 217 216 214 211 210 209 208 209 211 212 212 212 212 212 211 209 210 210 210 212 213 213 213 214 224 241 258 273 285
220 218 216 215 214 214 214 215 217 218 219 219 219 217 216 214 212 211 210 210 210 211 212 213 212 213 214 213 211 211 211 211 213 213 213 214 219 229 241 254 267 282